Time,TemperatureF,DewpointF,PressureIn,WindDirection,WindDirectionDegrees,WindSpeedMPH,WindSpeedGustMPH,Humidity,HourlyPrecipIn,Conditions,Clouds,dailyrainin,SoftwareType,DateUTC
2013-08-16 00:04:00,53.3,51.3,30.03,NW,304,0.0,0.0,93,0.00,,---,0.00,VWS V14.01,2013-08-16 05:04:00,
2013-08-16 00:09:00,53.2,51.2,30.03,NW,304,0.0,0.0,93,0.00,,---,0.00,VWS V14.01,2013-08-16 05:09:00,
2013-08-16 00:14:00,53.1,51.1,30.03,NW,304,0.0,0.0,93,0.00,,---,0.00,VWS V14.01,2013-08-16 05:14:00,
2013-08-16 00:19:00,53.0,51.0,30.04,NW,304,0.0,0.0,93,0.00,,---,0.00,VWS V14.01,2013-08-16 05:19:00,
2013-08-16 00:25:00,52.8,50.8,30.04,NW,304,0.0,0.0,93,0.00,,---,0.00,VWS V14.01,2013-08-16 05:25:00,
2013-08-16 00:30:00,52.7,51.0,30.04,NW,304,0.0,0.0,94,0.00,,---,0.00,VWS V14.01,2013-08-16 05:30:00,
2013-08-16 00:35:00,52.5,50.8,30.04,NW,304,0.0,0.0,94,0.00,,---,0.00,VWS V14.01,2013-08-16 05:35:00,
2013-08-16 00:40:00,52.3,50.6,30.04,NW,304,0.0,0.0,94,0.00,,---,0.00,VWS V14.01,2013-08-16 05:40:00,
2013-08-16 00:45:00,52.2,50.5,30.04,NW,304,0.0,0.0,94,0.00,,---,0.00,VWS V14.01,2013-08-16 05:45:00,
2013-08-16 00:50:00,52.1,50.4,30.04,NW,304,0.0,0.0,94,0.00,,---,0.00,VWS V14.01,2013-08-16 05:50:00,
2013-08-16 00:55:00,52.1,50.7,30.04,NW,304,0.0,0.0,95,0.00,,---,0.00,VWS V14.01,2013-08-16 05:55:00,
2013-08-16 01:00:00,52.2,50.8,30.04,NW,304,0.0,0.0,95,0.00,,---,0.00,VWS V14.01,2013-08-16 06:00:00,
2013-08-16 01:05:00,52.0,50.3,30.04,NW,304,0.0,0.0,94,0.00,,---,0.00,VWS V14.01,2013-08-16 06:05:00,
2013-08-16 01:10:00,51.8,50.1,30.04,NW,304,0.0,0.0,94,0.00,,---,0.00,VWS V14.01,2013-08-16 06:10:00,
2013-08-16 01:15:00,51.7,50.0,30.04,NW,304,0.0,0.0,94,0.00,,---,0.00,VWS V14.01,2013-08-16 06:15:00,
2013-08-16 01:20:00,51.6,49.9,30.04,NW,304,0.0,0.0,94,0.00,,---,0.00,VWS V14.01,2013-08-16 06:20:00,
2013-08-16 01:25:00,51.4,49.7,30.04,NW,304,0.0,0.0,94,0.00,,---,0.00,VWS V14.01,2013-08-16 06:25:00,
2013-08-16 01:30:00,51.3,49.6,30.04,NW,304,0.0,0.0,94,0.00,,---,0.00,VWS V14.01,2013-08-16 06:30:00,
2013-08-16 01:35:00,51.1,49.4,30.04,NW,304,0.0,0.0,94,0.00,,---,0.00,VWS V14.01,2013-08-16 06:35:00,
2013-08-16 01:40:00,50.9,49.2,30.04,NW,304,0.0,0.0,94,0.00,,---,0.00,VWS V14.01,2013-08-16 06:40:00,
2013-08-16 01:45:00,50.9,49.5,30.04,NW,304,0.0,0.0,95,0.00,,---,0.00,VWS V14.01,2013-08-16 06:45:00,
2013-08-16 01:50:00,50.8,49.4,30.04,NW,304,0.0,0.0,95,0.00,,---,0.00,VWS V14.01,2013-08-16 06:50:00,
2013-08-16 01:55:00,50.7,49.0,30.04,NW,304,0.0,0.0,94,0.00,,---,0.00,VWS V14.01,2013-08-16 06:55:00,
2013-08-16 02:00:00,50.5,48.8,30.04,NW,304,0.0,0.0,94,0.00,,---,0.00,VWS V14.01,2013-08-16 07:00:00,
2013-08-16 02:05:00,50.4,49.0,30.04,NW,304,0.0,0.0,95,0.00,,---,0.00,VWS V14.01,2013-08-16 07:05:00,
2013-08-16 02:10:00,50.4,49.0,30.04,NW,304,0.0,0.0,95,0.00,,---,0.00,VWS V14.01,2013-08-16 07:10:00,
2013-08-16 02:15:00,50.1,48.7,30.04,NW,304,0.0,0.0,95,0.00,,---,0.00,VWS V14.01,2013-08-16 07:15:00,
2013-08-16 02:20:00,49.8,48.4,30.04,NW,304,0.0,0.0,95,0.00,,---,0.00,VWS V14.01,2013-08-16 07:20:00,
2013-08-16 02:25:00,49.9,48.8,30.04,NW,304,0.0,0.0,96,0.00,,---,0.00,VWS V14.01,2013-08-16 07:25:00,
2013-08-16 02:30:00,50.0,48.9,30.04,NW,304,0.0,0.0,96,0.00,,---,0.00,VWS V14.01,2013-08-16 07:30:00,
2013-08-16 02:35:00,49.8,48.4,30.04,NW,304,0.0,0.0,95,0.00,,---,0.00,VWS V14.01,2013-08-16 07:35:00,
2013-08-16 02:40:00,49.5,48.1,30.04,NW,304,0.0,0.0,95,0.00,,---,0.00,VWS V14.01,2013-08-16 07:40:00,
2013-08-16 02:45:00,49.3,47.9,30.03,NW,304,0.0,0.0,95,0.00,,---,0.00,VWS V14.01,2013-08-16 07:45:00,
2013-08-16 02:50:00,49.2,47.8,30.03,NW,304,0.0,0.0,95,0.00,,---,0.00,VWS V14.01,2013-08-16 07:50:00,
2013-08-16 02:55:00,49.2,47.8,30.03,NW,304,0.0,0.0,95,0.00,,---,0.00,VWS V14.01,2013-08-16 07:55:00,
2013-08-16 03:00:00,49.1,48.0,30.04,NW,304,0.0,0.0,96,0.00,,---,0.00,VWS V14.01,2013-08-16 08:00:00,
2013-08-16 03:05:00,49.1,48.0,30.04,NW,304,0.0,0.0,96,0.00,,---,0.00,VWS V14.01,2013-08-16 08:05:00,
2013-08-16 03:10:00,49.1,48.0,30.04,NW,304,0.0,0.0,96,0.00,,---,0.00,VWS V14.01,2013-08-16 08:10:00,
2013-08-16 03:16:00,49.2,48.1,30.04,NW,304,0.0,0.0,96,0.00,,---,0.00,VWS V14.01,2013-08-16 08:16:00,
2013-08-16 03:21:00,49.2,48.1,30.04,NW,304,0.0,0.0,96,0.00,,---,0.00,VWS V14.01,2013-08-16 08:21:00,
2013-08-16 03:26:00,49.3,48.2,30.04,NW,304,0.0,0.0,96,0.00,,---,0.00,VWS V14.01,2013-08-16 08:26:00,
2013-08-16 03:31:00,49.0,47.9,30.04,NW,304,0.0,0.0,96,0.00,,---,0.00,VWS V14.01,2013-08-16 08:31:00,
2013-08-16 03:36:00,49.0,47.9,30.04,NW,304,0.0,0.0,96,0.00,,---,0.00,VWS V14.01,2013-08-16 08:36:00,
2013-08-16 03:41:00,49.0,47.9,30.04,NW,304,0.0,0.0,96,0.00,,---,0.00,VWS V14.01,2013-08-16 08:41:00,
2013-08-16 03:46:00,48.8,47.7,30.04,NW,304,0.0,0.0,96,0.00,,---,0.00,VWS V14.01,2013-08-16 08:46:00,
2013-08-16 03:51:00,48.8,47.7,30.04,NW,304,0.0,0.0,96,0.00,,---,0.00,VWS V14.01,2013-08-16 08:51:00,
2013-08-16 03:56:00,48.6,47.5,30.04,NW,304,0.0,0.0,96,0.00,,---,0.00,VWS V14.01,2013-08-16 08:56:00,
2013-08-16 04:01:00,48.3,46.9,30.04,NW,304,0.0,0.0,95,0.00,,---,0.00,VWS V14.01,2013-08-16 09:01:00,
2013-08-16 04:06:00,48.1,46.7,30.04,NW,304,0.0,0.0,95,0.00,,---,0.00,VWS V14.01,2013-08-16 09:06:00,
2013-08-16 04:11:00,48.0,46.6,30.04,NW,304,0.0,0.0,95,0.00,,---,0.00,VWS V14.01,2013-08-16 09:11:00,
2013-08-16 04:16:00,47.7,46.3,30.04,NW,304,0.0,0.0,95,0.00,,---,0.00,VWS V14.01,2013-08-16 09:16:00,
2013-08-16 04:21:00,47.6,46.2,30.04,NW,304,0.0,0.0,95,0.00,,---,0.00,VWS V14.01,2013-08-16 09:21:00,
2013-08-16 04:26:00,47.5,46.1,30.04,NW,304,0.0,0.0,95,0.00,,---,0.00,VWS V14.01,2013-08-16 09:26:00,
2013-08-16 04:31:00,47.4,46.0,30.05,NW,304,0.0,0.0,95,0.00,,---,0.00,VWS V14.01,2013-08-16 09:31:00,
2013-08-16 04:36:00,47.2,45.8,30.05,NW,304,0.0,0.0,95,0.00,,---,0.00,VWS V14.01,2013-08-16 09:36:00,
2013-08-16 04:41:00,47.2,46.1,30.05,NW,304,0.0,0.0,96,0.00,,---,0.00,VWS V14.01,2013-08-16 09:41:00,
2013-08-16 04:46:00,47.2,46.1,30.05,NW,304,0.0,0.0,96,0.00,,---,0.00,VWS V14.01,2013-08-16 09:46:00,
2013-08-16 04:51:00,47.2,46.1,30.05,NW,304,0.0,0.0,96,0.00,,---,0.00,VWS V14.01,2013-08-16 09:51:00,
2013-08-16 04:56:00,47.1,46.0,30.05,NW,304,0.0,0.0,96,0.00,,---,0.00,VWS V14.01,2013-08-16 09:56:00,
2013-08-16 05:01:00,47.0,45.9,30.05,NW,304,0.0,0.0,96,0.00,,---,0.00,VWS V14.01,2013-08-16 10:01:00,
2013-08-16 05:06:00,46.7,45.3,30.05,NW,304,0.0,0.0,95,0.00,,---,0.00,VWS V14.01,2013-08-16 10:06:00,
2013-08-16 05:11:00,46.5,45.4,30.05,NW,304,0.0,0.0,96,0.00,,---,0.00,VWS V14.01,2013-08-16 10:11:00,
2013-08-16 05:16:00,46.5,45.4,30.05,NW,304,0.0,0.0,96,0.00,,---,0.00,VWS V14.01,2013-08-16 10:16:00,
2013-08-16 05:21:00,46.5,45.4,30.05,NW,304,0.0,0.0,96,0.00,,---,0.00,VWS V14.01,2013-08-16 10:21:00,
2013-08-16 05:26:00,46.6,45.5,30.05,NW,304,0.0,0.0,96,0.00,,---,0.00,VWS V14.01,2013-08-16 10:26:00,
2013-08-16 05:31:00,46.5,45.4,30.05,NW,304,0.0,0.0,96,0.00,,---,0.00,VWS V14.01,2013-08-16 10:31:00,
2013-08-16 05:36:00,46.5,45.4,30.05,NW,304,0.0,0.0,96,0.00,,---,0.00,VWS V14.01,2013-08-16 10:36:00,
2013-08-16 05:41:00,46.4,45.3,30.05,NW,304,0.0,0.0,96,0.00,,---,0.00,VWS V14.01,2013-08-16 10:41:00,
2013-08-16 05:46:00,46.3,45.2,30.05,NW,304,0.0,0.0,96,0.00,,---,0.00,VWS V14.01,2013-08-16 10:46:00,
2013-08-16 05:51:00,46.2,45.1,30.05,NW,304,0.0,0.0,96,0.00,,---,0.00,VWS V14.01,2013-08-16 10:51:00,
2013-08-16 05:56:00,46.1,45.0,30.05,NW,304,0.0,0.0,96,0.00,,---,0.00,VWS V14.01,2013-08-16 10:56:00,
2013-08-16 06:01:00,46.0,44.9,30.06,NW,304,0.0,0.0,96,0.00,,---,0.00,VWS V14.01,2013-08-16 11:01:00,
2013-08-16 06:06:00,45.7,44.6,30.06,NW,304,0.0,0.0,96,0.00,,---,0.00,VWS V14.01,2013-08-16 11:06:00,
2013-08-16 06:11:00,45.8,44.7,30.06,NW,304,0.0,0.0,96,0.00,,---,0.00,VWS V14.01,2013-08-16 11:11:00,
2013-08-16 06:17:00,45.8,44.7,30.06,NW,304,0.0,0.0,96,0.00,,---,0.00,VWS V14.01,2013-08-16 11:17:00,
2013-08-16 06:22:00,45.8,44.7,30.06,NW,304,0.0,0.0,96,0.00,,---,0.00,VWS V14.01,2013-08-16 11:22:00,
2013-08-16 06:27:00,45.9,44.8,30.06,NW,304,0.0,0.0,96,0.00,,---,0.00,VWS V14.01,2013-08-16 11:27:00,
2013-08-16 06:32:00,45.9,44.8,30.06,NW,304,0.0,0.0,96,0.00,,---,0.00,VWS V14.01,2013-08-16 11:32:00,
2013-08-16 06:37:00,45.9,44.8,30.06,NW,304,0.0,0.0,96,0.00,,---,0.00,VWS V14.01,2013-08-16 11:37:00,
2013-08-16 06:42:00,45.9,44.8,30.06,NW,304,0.0,0.0,96,0.00,,---,0.00,VWS V14.01,2013-08-16 11:42:00,
2013-08-16 06:47:00,46.0,44.9,30.06,NW,304,0.0,0.0,96,0.00,,---,0.00,VWS V14.01,2013-08-16 11:47:00,
2013-08-16 06:52:00,46.0,44.9,30.06,NW,304,0.0,0.0,96,0.00,,---,0.00,VWS V14.01,2013-08-16 11:52:00,
2013-08-16 06:57:00,46.1,45.0,30.06,NW,304,0.0,0.0,96,0.00,,---,0.00,VWS V14.01,2013-08-16 11:57:00,
2013-08-16 07:02:00,46.3,45.5,30.06,NW,304,0.0,0.0,97,0.00,,---,0.00,VWS V14.01,2013-08-16 12:02:00,
2013-08-16 07:07:00,46.7,45.9,30.06,NW,304,0.0,0.0,97,0.00,,---,0.00,VWS V14.01,2013-08-16 12:07:00,
2013-08-16 07:12:00,47.3,46.5,30.06,NW,304,0.0,0.0,97,0.00,,---,0.00,VWS V14.01,2013-08-16 12:12:00,
2013-08-16 07:17:00,47.8,47.3,30.07,NW,304,0.0,0.0,98,0.00,,---,0.00,VWS V14.01,2013-08-16 12:17:00,
2013-08-16 07:22:00,48.2,47.7,30.07,NW,304,0.0,0.0,98,0.00,,---,0.00,VWS V14.01,2013-08-16 12:22:00,
2013-08-16 07:27:00,48.4,47.9,30.07,NW,304,0.0,0.0,98,0.00,,---,0.00,VWS V14.01,2013-08-16 12:27:00,
2013-08-16 07:32:00,49.0,48.5,30.07,NW,304,0.0,0.0,98,0.00,,---,0.00,VWS V14.01,2013-08-16 12:32:00,
2013-08-16 07:37:00,49.2,48.7,30.07,NW,304,0.0,0.0,98,0.00,,---,0.00,VWS V14.01,2013-08-16 12:37:00,
2013-08-16 07:42:00,49.3,48.8,30.07,NW,304,0.0,0.0,98,0.00,,---,0.00,VWS V14.01,2013-08-16 12:42:00,
2013-08-16 07:47:00,49.5,49.0,30.08,NW,304,0.0,0.0,98,0.00,,---,0.00,VWS V14.01,2013-08-16 12:47:00,
2013-08-16 07:52:00,50.2,49.7,30.08,NW,304,0.0,0.0,98,0.00,,---,0.00,VWS V14.01,2013-08-16 12:52:00,
2013-08-16 07:57:00,51.0,50.5,30.08,NW,304,0.0,0.0,98,0.00,,---,0.00,VWS V14.01,2013-08-16 12:57:00,
2013-08-16 08:02:00,51.7,51.2,30.08,NW,304,0.0,0.0,98,0.00,,---,0.00,VWS V14.01,2013-08-16 13:02:00,
2013-08-16 08:07:00,52.5,52.2,30.08,NW,304,0.0,0.0,99,0.00,,---,0.00,VWS V14.01,2013-08-16 13:07:00,
2013-08-16 08:12:00,53.3,53.0,30.08,NW,304,0.0,0.0,99,0.00,,---,0.00,VWS V14.01,2013-08-16 13:12:00,
2013-08-16 08:17:00,53.9,53.6,30.08,NW,304,0.0,0.0,99,0.00,,---,0.00,VWS V14.01,2013-08-16 13:17:00,
2013-08-16 08:22:00,54.6,54.3,30.08,NW,304,0.0,0.0,99,0.00,,---,0.00,VWS V14.01,2013-08-16 13:22:00,
2013-08-16 08:27:00,55.1,54.8,30.08,NW,304,0.0,0.0,99,0.00,,---,0.00,VWS V14.01,2013-08-16 13:27:00,
2013-08-16 08:32:00,55.7,55.4,30.08,NW,304,0.0,0.0,99,0.00,,---,0.00,VWS V14.01,2013-08-16 13:32:00,
2013-08-16 08:37:00,56.1,55.5,30.08,NW,304,0.0,0.0,98,0.00,,---,0.00,VWS V14.01,2013-08-16 13:37:00,
2013-08-16 08:42:00,56.9,55.8,30.08,NW,304,0.0,0.0,96,0.00,,---,0.00,VWS V14.01,2013-08-16 13:42:00,
2013-08-16 08:47:00,58.2,55.9,30.08,WNW,291,0.0,0.0,92,0.00,,---,0.00,VWS V14.01,2013-08-16 13:47:00,
2013-08-16 08:52:00,59.4,56.5,30.08,WNW,291,0.0,0.0,90,0.00,,---,0.00,VWS V14.01,2013-08-16 13:52:00,
2013-08-16 08:58:00,60.3,56.7,30.08,WNW,290,0.0,0.0,88,0.00,,---,0.00,VWS V14.01,2013-08-16 13:58:00,
2013-08-16 09:03:00,61.0,57.1,30.08,WNW,290,0.0,0.0,87,0.00,,---,0.00,VWS V14.01,2013-08-16 14:03:00,
2013-08-16 09:08:00,61.6,57.4,30.08,NW,321,0.0,0.0,86,0.00,,---,0.00,VWS V14.01,2013-08-16 14:08:00,
2013-08-16 09:13:00,62.2,57.6,30.08,NW,321,0.0,0.0,85,0.00,,---,0.00,VWS V14.01,2013-08-16 14:13:00,
2013-08-16 09:18:00,62.8,57.9,30.08,WNW,284,0.0,0.0,84,0.00,,---,0.00,VWS V14.01,2013-08-16 14:18:00,
2013-08-16 09:23:00,63.3,58.1,30.08,West,271,0.0,0.0,83,0.00,,---,0.00,VWS V14.01,2013-08-16 14:23:00,
2013-08-16 09:28:00,63.9,58.3,30.08,West,279,0.0,0.0,82,0.00,,---,0.00,VWS V14.01,2013-08-16 14:28:00,
2013-08-16 09:33:00,64.7,59.1,30.08,West,279,0.0,0.0,82,0.00,,---,0.00,VWS V14.01,2013-08-16 14:33:00,
2013-08-16 09:38:00,65.3,58.6,30.08,West,261,0.0,2.0,79,0.00,,---,0.00,VWS V14.01,2013-08-16 14:38:00,
2013-08-16 09:43:00,65.8,59.1,30.08,WNW,284,0.0,2.0,79,0.00,,---,0.00,VWS V14.01,2013-08-16 14:43:00,
2013-08-16 09:48:00,66.2,59.2,30.09,West,260,1.0,2.0,78,0.00,,---,0.00,VWS V14.01,2013-08-16 14:48:00,
2013-08-16 09:53:00,66.5,59.1,30.09,SW,225,0.0,2.0,77,0.00,,---,0.00,VWS V14.01,2013-08-16 14:53:00,
2013-08-16 09:58:00,67.0,59.2,30.09,West,269,0.0,2.0,76,0.00,,---,0.00,VWS V14.01,2013-08-16 14:58:00,
2013-08-16 10:03:00,67.6,59.8,30.09,West,267,0.0,0.0,76,0.00,,---,0.00,VWS V14.01,2013-08-16 15:03:00,
2013-08-16 10:08:00,68.0,58.7,30.09,WNW,294,0.0,3.0,72,0.00,,---,0.00,VWS V14.01,2013-08-16 15:08:00,
2013-08-16 10:13:00,68.4,58.6,30.09,WNW,294,0.0,3.0,71,0.00,,---,0.00,VWS V14.01,2013-08-16 15:13:00,
2013-08-16 10:18:00,68.7,58.9,30.09,SW,234,0.0,3.0,71,0.00,,---,0.00,VWS V14.01,2013-08-16 15:18:00,
2013-08-16 10:23:00,69.0,58.8,30.09,WNW,290,1.0,3.0,70,0.00,,---,0.00,VWS V14.01,2013-08-16 15:23:00,
2013-08-16 10:28:00,69.4,59.2,30.09,NW,314,0.0,3.0,70,0.00,,---,0.00,VWS V14.01,2013-08-16 15:28:00,
2013-08-16 10:33:00,69.8,59.6,30.09,WNW,299,0.0,1.0,70,0.00,,---,0.00,VWS V14.01,2013-08-16 15:33:00,
2013-08-16 10:38:00,70.2,58.7,30.09,East,84,0.0,1.0,67,0.00,,---,0.00,VWS V14.01,2013-08-16 15:38:00,
2013-08-16 10:43:00,70.5,57.3,30.09,West,267,1.0,2.0,63,0.00,,---,0.00,VWS V14.01,2013-08-16 15:43:00,
2013-08-16 10:48:00,70.9,58.6,30.09,SE,135,1.0,2.0,65,0.00,,---,0.00,VWS V14.01,2013-08-16 15:48:00,
2013-08-16 10:53:00,71.5,59.1,30.09,SW,234,0.0,2.0,65,0.00,,---,0.00,VWS V14.01,2013-08-16 15:53:00,
2013-08-16 10:58:00,72.1,57.5,30.09,NNE,19,2.0,2.0,60,0.00,,---,0.00,VWS V14.01,2013-08-16 15:58:00,
2013-08-16 11:03:00,72.2,57.1,30.09,West,279,2.0,4.0,59,0.00,,---,0.00,VWS V14.01,2013-08-16 16:03:00,
2013-08-16 11:08:00,72.5,55.4,30.09,WSW,254,1.0,4.0,55,0.00,,---,0.00,VWS V14.01,2013-08-16 16:08:00,
2013-08-16 11:13:00,72.9,56.8,30.09,West,281,1.0,4.0,57,0.00,,---,0.00,VWS V14.01,2013-08-16 16:13:00,
2013-08-16 11:18:00,73.1,56.0,30.08,WSW,257,1.0,5.0,55,0.00,,---,0.00,VWS V14.01,2013-08-16 16:18:00,
2013-08-16 11:23:00,73.4,56.8,30.08,West,269,0.0,5.0,56,0.00,,---,0.00,VWS V14.01,2013-08-16 16:23:00,
2013-08-16 11:28:00,74.2,56.5,30.08,West,272,0.0,5.0,54,0.00,,---,0.00,VWS V14.01,2013-08-16 16:28:00,
2013-08-16 11:33:00,74.4,54.6,30.08,West,269,0.0,4.0,50,0.00,,---,0.00,VWS V14.01,2013-08-16 16:33:00,
2013-08-16 11:38:00,74.6,54.8,30.08,West,264,1.0,4.0,50,0.00,,---,0.00,VWS V14.01,2013-08-16 16:38:00,
2013-08-16 11:44:00,75.3,55.9,30.08,West,260,1.0,4.0,51,0.00,,---,0.00,VWS V14.01,2013-08-16 16:44:00,
2013-08-16 11:49:00,75.6,55.1,30.08,NNE,13,0.0,4.0,49,0.00,,---,0.00,VWS V14.01,2013-08-16 16:49:00,
2013-08-16 11:54:00,75.8,55.3,30.08,West,263,1.0,4.0,49,0.00,,---,0.00,VWS V14.01,2013-08-16 16:54:00,
2013-08-16 11:59:00,76.0,55.5,30.08,West,265,2.0,4.0,49,0.00,,---,0.00,VWS V14.01,2013-08-16 16:59:00,
2013-08-16 12:04:00,75.9,53.7,30.09,WSW,237,0.0,4.0,46,0.00,,---,0.00,VWS V14.01,2013-08-16 17:04:00,
2013-08-16 12:09:00,76.3,55.2,30.09,WNW,286,2.0,4.0,48,0.00,,---,0.00,VWS V14.01,2013-08-16 17:09:00,
2013-08-16 12:14:00,76.2,55.1,30.09,West,272,2.0,4.0,48,0.00,,---,0.00,VWS V14.01,2013-08-16 17:14:00,
2013-08-16 12:19:00,76.1,55.0,30.08,West,275,0.0,4.0,48,0.00,,---,0.00,VWS V14.01,2013-08-16 17:19:00,
2013-08-16 12:24:00,76.5,54.2,30.08,West,269,2.0,4.0,46,0.00,,---,0.00,VWS V14.01,2013-08-16 17:24:00,
2013-08-16 12:29:00,76.0,51.9,30.08,West,274,2.0,5.0,43,0.00,,---,0.00,VWS V14.01,2013-08-16 17:29:00,
2013-08-16 12:34:00,75.9,54.2,30.07,West,273,0.0,2.0,47,0.00,,---,0.00,VWS V14.01,2013-08-16 17:34:00,
2013-08-16 12:39:00,75.6,55.7,30.07,West,275,1.0,2.0,50,0.00,,---,0.00,VWS V14.01,2013-08-16 17:39:00,
2013-08-16 12:44:00,75.2,55.3,30.07,West,269,1.0,3.0,50,0.00,,---,0.00,VWS V14.01,2013-08-16 17:44:00,
2013-08-16 12:49:00,75.1,56.3,30.07,WSW,255,0.0,3.0,52,0.00,,---,0.00,VWS V14.01,2013-08-16 17:49:00,
2013-08-16 12:54:00,74.4,54.6,30.07,West,272,1.0,3.0,50,0.00,,---,0.00,VWS V14.01,2013-08-16 17:54:00,
2013-08-16 12:59:00,73.8,54.0,30.07,West,281,0.0,3.0,50,0.00,,---,0.00,VWS V14.01,2013-08-16 17:59:00,
2013-08-16 13:04:00,73.9,55.7,30.07,ENE,78,1.0,1.0,53,0.00,,---,0.00,VWS V14.01,2013-08-16 18:04:00,
2013-08-16 13:09:00,74.2,55.5,30.07,NNW,327,1.0,2.0,52,0.00,,---,0.00,VWS V14.01,2013-08-16 18:09:00,
2013-08-16 13:14:00,75.8,54.7,30.07,WNW,286,2.0,3.0,48,0.00,,---,0.00,VWS V14.01,2013-08-16 18:14:00,
2013-08-16 13:19:00,76.0,53.2,30.07,West,262,0.0,3.0,45,0.00,,---,0.00,VWS V14.01,2013-08-16 18:19:00,
2013-08-16 13:25:00,77.2,54.8,30.07,WSW,253,1.0,3.0,46,0.00,,---,0.00,VWS V14.01,2013-08-16 18:25:00,
2013-08-16 13:30:00,77.9,53.0,30.07,West,269,1.0,4.0,42,0.00,,---,0.00,VWS V14.01,2013-08-16 18:30:00,
2013-08-16 13:35:00,78.3,53.3,30.07,WNW,284,0.0,1.0,42,0.00,,---,0.00,VWS V14.01,2013-08-16 18:35:00,
2013-08-16 13:40:00,78.5,51.5,30.07,South,169,0.0,4.0,39,0.00,,---,0.00,VWS V14.01,2013-08-16 18:40:00,
2013-08-16 13:45:00,79.1,49.9,30.07,SE,141,1.0,4.0,36,0.00,,---,0.00,VWS V14.01,2013-08-16 18:45:00,
2013-08-16 13:50:00,79.2,52.8,30.07,South,171,2.0,4.0,40,0.00,,---,0.00,VWS V14.01,2013-08-16 18:50:00,
2013-08-16 13:55:00,79.9,52.8,30.07,SSE,149,3.0,4.0,39,0.00,,---,0.00,VWS V14.01,2013-08-16 18:55:00,
2013-08-16 14:00:00,80.4,53.9,30.06,WSW,256,1.0,2.0,40,0.00,,---,0.00,VWS V14.01,2013-08-16 19:00:00,
2013-08-16 14:05:00,80.7,53.5,30.06,South,181,2.0,3.0,39,0.00,,---,0.00,VWS V14.01,2013-08-16 19:05:00,
2013-08-16 14:11:00,80.4,53.2,30.06,West,280,1.0,3.0,39,0.00,,---,0.00,VWS V14.01,2013-08-16 19:11:00,
2013-08-16 14:16:00,78.9,53.9,30.06,West,261,0.0,3.0,42,0.00,,---,0.00,VWS V14.01,2013-08-16 19:16:00,
2013-08-16 14:21:00,78.5,54.2,30.06,West,267,0.0,3.0,43,0.00,,---,0.00,VWS V14.01,2013-08-16 19:21:00,
2013-08-16 14:26:00,77.4,55.6,30.06,West,263,0.0,3.0,47,0.00,,---,0.00,VWS V14.01,2013-08-16 19:26:00,
2013-08-16 14:31:00,76.7,55.0,30.07,West,264,0.0,0.0,47,0.00,,---,0.00,VWS V14.01,2013-08-16 19:31:00,
2013-08-16 14:36:00,76.1,55.0,30.07,WSW,244,0.0,0.0,48,0.00,,---,0.00,VWS V14.01,2013-08-16 19:36:00,
2013-08-16 14:41:00,76.1,54.4,30.07,WSW,243,0.0,0.0,47,0.00,,---,0.00,VWS V14.01,2013-08-16 19:41:00,
2013-08-16 14:46:00,76.5,58.1,30.06,WSW,243,0.0,0.0,53,0.00,,---,0.00,VWS V14.01,2013-08-16 19:46:00,
2013-08-16 14:51:00,75.6,56.8,30.06,WSW,244,0.0,0.0,52,0.00,,---,0.00,VWS V14.01,2013-08-16 19:51:00,
2013-08-16 14:56:00,75.1,57.8,30.06,WSW,243,0.0,0.0,55,0.00,,---,0.00,VWS V14.01,2013-08-16 19:56:00,
2013-08-16 15:01:00,74.9,58.2,30.06,WSW,244,0.0,0.0,56,0.00,,---,0.00,VWS V14.01,2013-08-16 20:01:00,
2013-08-16 15:06:00,75.6,58.8,30.06,WSW,244,0.0,0.0,56,0.00,,---,0.00,VWS V14.01,2013-08-16 20:06:00,
2013-08-16 15:11:00,75.7,57.9,30.06,ENE,72,2.0,2.0,54,0.00,,---,0.00,VWS V14.01,2013-08-16 20:11:00,
2013-08-16 15:16:00,76.3,55.8,30.05,NNW,346,0.0,4.0,49,0.00,,---,0.00,VWS V14.01,2013-08-16 20:16:00,
2013-08-16 15:21:00,77.2,56.6,30.05,West,262,1.0,4.0,49,0.00,,---,0.00,VWS V14.01,2013-08-16 20:21:00,
2013-08-16 15:26:00,77.5,55.1,30.05,WNW,284,0.0,4.0,46,0.00,,---,0.00,VWS V14.01,2013-08-16 20:26:00,
2013-08-16 15:31:00,78.5,56.0,30.05,SW,215,0.0,2.0,46,0.00,,---,0.00,VWS V14.01,2013-08-16 20:31:00,
2013-08-16 15:36:00,79.2,56.7,30.05,West,265,2.0,3.0,46,0.00,,---,0.00,VWS V14.01,2013-08-16 20:36:00,
2013-08-16 15:41:00,78.8,56.9,30.05,WNW,286,2.0,3.0,47,0.00,,---,0.00,VWS V14.01,2013-08-16 20:41:00,
2013-08-16 15:46:00,79.6,57.6,30.05,West,274,0.0,3.0,47,0.00,,---,0.00,VWS V14.01,2013-08-16 20:46:00,
2013-08-16 15:51:00,79.8,57.2,30.05,West,279,2.0,3.0,46,0.00,,---,0.00,VWS V14.01,2013-08-16 20:51:00,
2013-08-16 15:56:00,79.4,56.8,30.05,West,265,1.0,3.0,46,0.00,,---,0.00,VWS V14.01,2013-08-16 20:56:00,
2013-08-16 16:02:00,79.1,56.0,30.05,WNW,302,1.0,2.0,45,0.00,,---,0.00,VWS V14.01,2013-08-16 21:02:00,
2013-08-16 16:07:00,79.9,56.1,30.05,SSW,194,1.0,2.0,44,0.00,,---,0.00,VWS V14.01,2013-08-16 21:07:00,
2013-08-16 16:12:00,80.7,57.4,30.05,South,180,4.0,4.0,45,0.00,,---,0.00,VWS V14.01,2013-08-16 21:12:00,
2013-08-16 16:17:00,80.1,56.9,30.05,West,277,2.0,4.0,45,0.00,,---,0.00,VWS V14.01,2013-08-16 21:17:00,
2013-08-16 16:22:00,79.4,55.6,30.05,SE,140,1.0,4.0,44,0.00,,---,0.00,VWS V14.01,2013-08-16 21:22:00,
2013-08-16 16:27:00,79.6,55.2,30.05,SW,221,3.0,6.0,43,0.00,,---,0.00,VWS V14.01,2013-08-16 21:27:00,
2013-08-16 16:32:00,79.0,55.2,30.05,WSW,257,0.0,6.0,44,0.00,,---,0.00,VWS V14.01,2013-08-16 21:32:00,
2013-08-16 16:38:00,79.2,56.0,30.05,WNW,299,5.0,6.0,45,0.00,,---,0.00,VWS V14.01,2013-08-16 21:38:00,
2013-08-16 16:43:00,78.5,56.0,30.05,NNE,27,0.0,6.0,46,0.00,,---,0.00,VWS V14.01,2013-08-16 21:43:00,
2013-08-16 16:48:00,78.5,55.4,30.05,West,264,2.0,6.0,45,0.00,,---,0.00,VWS V14.01,2013-08-16 21:48:00,
2013-08-16 16:53:00,78.5,56.0,30.05,SSW,210,0.0,6.0,46,0.00,,---,0.00,VWS V14.01,2013-08-16 21:53:00,
2013-08-16 16:58:00,78.3,55.2,30.05,SE,133,1.0,6.0,45,0.00,,---,0.00,VWS V14.01,2013-08-16 21:58:00,
2013-08-16 17:03:00,77.9,54.9,30.05,WSW,252,1.0,5.0,45,0.00,,---,0.00,VWS V14.01,2013-08-16 22:03:00,
2013-08-16 17:08:00,77.8,55.4,30.05,SW,225,0.0,5.0,46,0.00,,---,0.00,VWS V14.01,2013-08-16 22:08:00,
2013-08-16 17:13:00,78.2,57.5,30.05,SW,226,1.0,5.0,49,0.00,,---,0.00,VWS V14.01,2013-08-16 22:13:00,
2013-08-16 17:18:00,78.4,57.1,30.05,West,265,0.0,5.0,48,0.00,,---,0.00,VWS V14.01,2013-08-16 22:18:00,
2013-08-16 17:23:00,78.1,55.7,30.05,West,264,1.0,6.0,46,0.00,,---,0.00,VWS V14.01,2013-08-16 22:23:00,
2013-08-16 17:28:00,77.7,55.3,30.05,East,83,0.0,6.0,46,0.00,,---,0.00,VWS V14.01,2013-08-16 22:28:00,
2013-08-16 17:34:00,77.8,56.6,30.05,WSW,245,0.0,2.0,48,0.00,,---,0.00,VWS V14.01,2013-08-16 22:34:00,
2013-08-16 17:39:00,77.7,54.7,30.05,SSE,160,1.0,2.0,45,0.00,,---,0.00,VWS V14.01,2013-08-16 22:39:00,
2013-08-16 17:44:00,77.6,55.8,30.05,WSW,253,2.0,2.0,47,0.00,,---,0.00,VWS V14.01,2013-08-16 22:44:00,
2013-08-16 17:49:00,77.3,55.5,30.05,West,267,1.0,3.0,47,0.00,,---,0.00,VWS V14.01,2013-08-16 22:49:00,
2013-08-16 17:54:00,77.0,55.2,30.05,West,260,0.0,3.0,47,0.00,,---,0.00,VWS V14.01,2013-08-16 22:54:00,
2013-08-16 17:59:00,76.9,55.2,30.05,West,268,2.0,3.0,47,0.00,,---,0.00,VWS V14.01,2013-08-16 22:59:00,
2013-08-16 18:04:00,76.7,55.0,30.05,West,279,0.0,4.0,47,0.00,,---,0.00,VWS V14.01,2013-08-16 23:04:00,
2013-08-16 18:09:00,76.5,55.9,30.05,WNW,284,0.0,4.0,49,0.00,,---,0.00,VWS V14.01,2013-08-16 23:09:00,
2013-08-16 18:14:00,76.4,55.8,30.05,SE,126,1.0,4.0,49,0.00,,---,0.00,VWS V14.01,2013-08-16 23:14:00,
2013-08-16 18:19:00,76.3,57.9,30.05,WNW,285,0.0,4.0,53,0.00,,---,0.00,VWS V14.01,2013-08-16 23:19:00,
2013-08-16 18:24:00,76.1,56.7,30.05,West,265,1.0,4.0,51,0.00,,---,0.00,VWS V14.01,2013-08-16 23:24:00,
2013-08-16 18:29:00,75.8,54.7,30.06,West,259,1.0,4.0,48,0.00,,---,0.00,VWS V14.01,2013-08-16 23:29:00,
2013-08-16 18:34:00,75.7,55.8,30.06,West,265,0.0,4.0,50,0.00,,---,0.00,VWS V14.01,2013-08-16 23:34:00,
2013-08-16 18:39:00,75.5,55.6,30.06,West,277,1.0,4.0,50,0.00,,---,0.00,VWS V14.01,2013-08-16 23:39:00,
2013-08-16 18:44:00,75.3,56.5,30.06,West,270,1.0,4.0,52,0.00,,---,0.00,VWS V14.01,2013-08-16 23:44:00,
2013-08-16 18:49:00,75.0,58.8,30.06,West,271,0.0,4.0,57,0.00,,---,0.00,VWS V14.01,2013-08-16 23:49:00,
2013-08-16 18:55:00,74.6,56.4,30.06,West,271,1.0,4.0,53,0.00,,---,0.00,VWS V14.01,2013-08-16 23:55:00,
2013-08-16 19:00:00,74.4,58.7,30.06,West,271,0.0,4.0,58,0.00,,---,0.00,VWS V14.01,2013-08-17 00:00:00,
2013-08-16 19:05:00,73.9,58.7,30.06,West,271,0.0,0.0,59,0.00,,---,0.00,VWS V14.01,2013-08-17 00:05:00,
2013-08-16 19:10:00,73.1,58.4,30.06,West,271,0.0,0.0,60,0.00,,---,0.00,VWS V14.01,2013-08-17 00:10:00,
2013-08-16 19:15:00,72.4,58.7,30.06,West,271,0.0,0.0,62,0.00,,---,0.00,VWS V14.01,2013-08-17 00:15:00,
2013-08-16 19:20:00,71.8,56.7,30.06,West,271,0.0,0.0,59,0.00,,---,0.00,VWS V14.01,2013-08-17 00:20:00,
2013-08-16 19:25:00,71.3,56.7,30.06,West,271,0.0,0.0,60,0.00,,---,0.00,VWS V14.01,2013-08-17 00:25:00,
2013-08-16 19:30:00,70.8,57.6,30.06,West,271,0.0,0.0,63,0.00,,---,0.00,VWS V14.01,2013-08-17 00:30:00,
2013-08-16 19:35:00,70.1,57.4,30.06,West,271,0.0,0.0,64,0.00,,---,0.00,VWS V14.01,2013-08-17 00:35:00,
2013-08-16 19:40:00,69.5,56.8,30.06,West,271,0.0,0.0,64,0.00,,---,0.00,VWS V14.01,2013-08-17 00:40:00,
2013-08-16 19:45:00,69.1,56.8,30.06,West,271,0.0,0.0,65,0.00,,---,0.00,VWS V14.01,2013-08-17 00:45:00,
2013-08-16 19:50:00,68.6,58.4,30.06,West,271,0.0,0.0,70,0.00,,---,0.00,VWS V14.01,2013-08-17 00:50:00,
2013-08-16 19:55:00,68.0,57.5,30.06,West,271,0.0,0.0,69,0.00,,---,0.00,VWS V14.01,2013-08-17 00:55:00,
2013-08-16 20:00:00,67.6,57.5,30.06,West,271,0.0,0.0,70,0.00,,---,0.00,VWS V14.01,2013-08-17 01:00:00,
2013-08-16 20:05:00,67.3,58.7,30.06,West,271,0.0,0.0,74,0.00,,---,0.00,VWS V14.01,2013-08-17 01:05:00,
2013-08-16 20:10:00,66.5,57.6,30.06,West,271,0.0,0.0,73,0.00,,---,0.00,VWS V14.01,2013-08-17 01:10:00,
2013-08-16 20:15:00,66.0,57.5,30.07,West,271,0.0,0.0,74,0.00,,---,0.00,VWS V14.01,2013-08-17 01:15:00,
2013-08-16 20:20:00,65.7,57.9,30.07,West,271,0.0,0.0,76,0.00,,---,0.00,VWS V14.01,2013-08-17 01:20:00,
2013-08-16 20:25:00,65.4,58.4,30.07,West,271,0.0,0.0,78,0.00,,---,0.00,VWS V14.01,2013-08-17 01:25:00,
2013-08-16 20:30:00,64.9,58.2,30.07,West,271,0.0,0.0,79,0.00,,---,0.00,VWS V14.01,2013-08-17 01:30:00,
2013-08-16 20:35:00,64.5,58.5,30.07,West,271,0.0,0.0,81,0.00,,---,0.00,VWS V14.01,2013-08-17 01:35:00,
2013-08-16 20:40:00,64.0,58.1,30.07,West,271,0.0,0.0,81,0.00,,---,0.00,VWS V14.01,2013-08-17 01:40:00,
2013-08-16 20:45:00,63.5,57.9,30.07,West,271,0.0,0.0,82,0.00,,---,0.00,VWS V14.01,2013-08-17 01:45:00,
2013-08-16 20:50:00,63.2,58.0,30.07,West,271,0.0,0.0,83,0.00,,---,0.00,VWS V14.01,2013-08-17 01:50:00,
2013-08-16 20:55:00,62.7,57.5,30.07,West,271,0.0,0.0,83,0.00,,---,0.00,VWS V14.01,2013-08-17 01:55:00,
2013-08-16 21:00:00,62.3,57.7,30.07,West,271,0.0,0.0,85,0.00,,---,0.00,VWS V14.01,2013-08-17 02:00:00,
2013-08-16 21:05:00,62.0,57.5,30.07,West,271,0.0,0.0,85,0.00,,---,0.00,VWS V14.01,2013-08-17 02:05:00,
2013-08-16 21:10:00,61.7,57.2,30.07,West,271,0.0,0.0,85,0.00,,---,0.00,VWS V14.01,2013-08-17 02:10:00,
2013-08-16 21:15:00,61.4,57.2,30.07,West,271,0.0,0.0,86,0.00,,---,0.00,VWS V14.01,2013-08-17 02:15:00,
2013-08-16 21:20:00,61.2,57.0,30.07,West,271,0.0,0.0,86,0.00,,---,0.00,VWS V14.01,2013-08-17 02:20:00,
2013-08-16 21:25:00,61.0,57.1,30.07,West,271,0.0,0.0,87,0.00,,---,0.00,VWS V14.01,2013-08-17 02:25:00,
2013-08-16 21:30:00,60.7,56.8,30.08,West,271,0.0,0.0,87,0.00,,---,0.00,VWS V14.01,2013-08-17 02:30:00,
2013-08-16 21:36:00,60.5,56.6,30.08,West,271,0.0,0.0,87,0.00,,---,0.00,VWS V14.01,2013-08-17 02:36:00,
2013-08-16 21:41:00,60.2,56.6,30.08,West,271,0.0,0.0,88,0.00,,---,0.00,VWS V14.01,2013-08-17 02:41:00,
2013-08-16 21:46:00,59.9,56.7,30.08,West,271,0.0,0.0,89,0.00,,---,0.00,VWS V14.01,2013-08-17 02:46:00,
2013-08-16 21:51:00,59.8,56.9,30.08,West,271,0.0,0.0,90,0.00,,---,0.00,VWS V14.01,2013-08-17 02:51:00,
2013-08-16 21:56:00,59.7,57.1,30.08,West,271,0.0,0.0,91,0.00,,---,0.00,VWS V14.01,2013-08-17 02:56:00,
2013-08-16 22:01:00,59.5,56.9,30.08,West,271,0.0,0.0,91,0.00,,---,0.00,VWS V14.01,2013-08-17 03:01:00,
2013-08-16 22:06:00,59.2,56.3,30.08,West,271,0.0,0.0,90,0.00,,---,0.00,VWS V14.01,2013-08-17 03:06:00,
2013-08-16 22:11:00,59.0,56.1,30.08,West,271,0.0,0.0,90,0.00,,---,0.00,VWS V14.01,2013-08-17 03:11:00,
2013-08-16 22:16:00,58.9,56.3,30.08,West,271,0.0,0.0,91,0.00,,---,0.00,VWS V14.01,2013-08-17 03:16:00,
2013-08-16 22:21:00,58.7,56.1,30.08,West,271,0.0,0.0,91,0.00,,---,0.00,VWS V14.01,2013-08-17 03:21:00,
2013-08-16 22:26:00,58.5,55.9,30.08,West,271,0.0,0.0,91,0.00,,---,0.00,VWS V14.01,2013-08-17 03:26:00,
2013-08-16 22:31:00,58.3,55.7,30.08,West,271,0.0,0.0,91,0.00,,---,0.00,VWS V14.01,2013-08-17 03:31:00,
2013-08-16 22:36:00,58.1,55.5,30.08,West,271,0.0,0.0,91,0.00,,---,0.00,VWS V14.01,2013-08-17 03:36:00,
2013-08-16 22:41:00,57.8,55.2,30.08,West,271,0.0,0.0,91,0.00,,---,0.00,VWS V14.01,2013-08-17 03:41:00,
2013-08-16 22:46:00,57.7,55.4,30.08,West,271,0.0,0.0,92,0.00,,---,0.00,VWS V14.01,2013-08-17 03:46:00,
2013-08-16 22:51:00,57.5,55.2,30.08,West,271,0.0,0.0,92,0.00,,---,0.00,VWS V14.01,2013-08-17 03:51:00,
2013-08-16 22:56:00,57.2,54.9,30.08,West,271,0.0,0.0,92,0.00,,---,0.00,VWS V14.01,2013-08-17 03:56:00,
2013-08-16 23:01:00,57.0,54.7,30.09,West,271,0.0,0.0,92,0.00,,---,0.00,VWS V14.01,2013-08-17 04:01:00,
2013-08-16 23:02:00,57.0,54.7,30.09,West,271,0.0,0.0,92,0.00,,---,0.00,VWS V14.01,2013-08-17 04:02:00,
2013-08-16 23:03:00,56.9,54.6,30.09,West,271,0.0,0.0,92,0.00,,---,0.00,VWS V14.01,2013-08-17 04:03:00,
2013-08-16 23:06:00,56.8,54.5,30.09,West,271,0.0,0.0,92,0.00,,---,0.00,VWS V14.01,2013-08-17 04:06:00,
2013-08-16 23:11:00,56.8,54.8,30.09,West,271,0.0,0.0,93,0.00,,---,0.00,VWS V14.01,2013-08-17 04:11:00,
2013-08-16 23:16:00,56.7,54.7,30.09,West,271,0.0,0.0,93,0.00,,---,0.00,VWS V14.01,2013-08-17 04:16:00,
2013-08-16 23:21:00,56.6,54.6,30.09,West,271,0.0,0.0,93,0.00,,---,0.00,VWS V14.01,2013-08-17 04:21:00,
2013-08-16 23:26:00,56.5,54.5,30.09,West,271,0.0,0.0,93,0.00,,---,0.00,VWS V14.01,2013-08-17 04:26:00,
2013-08-16 23:31:00,56.3,54.3,30.09,West,271,0.0,0.0,93,0.00,,---,0.00,VWS V14.01,2013-08-17 04:31:00,
2013-08-16 23:36:00,56.2,54.2,30.09,West,271,0.0,0.0,93,0.00,,---,0.00,VWS V14.01,2013-08-17 04:36:00,
2013-08-16 23:41:00,56.2,54.5,30.09,West,271,0.0,0.0,94,0.00,,---,0.00,VWS V14.01,2013-08-17 04:41:00,
2013-08-16 23:46:00,56.0,54.0,30.09,West,271,0.0,0.0,93,0.00,,---,0.00,VWS V14.01,2013-08-17 04:46:00,
2013-08-16 23:51:00,55.9,53.9,30.09,West,270,0.0,0.0,93,0.00,,---,0.00,VWS V14.01,2013-08-17 04:51:00,
2013-08-16 23:56:00,55.7,53.7,30.09,West,271,0.0,0.0,93,0.00,,---,0.00,VWS V14.01,2013-08-17 04:56:00,